| time (UTC) | temp C | wind direction | speed KPH | gust KPH | rain 1hr cm | rain 24hr cm | rain mn cm | humidity % | barometer mb |
| 20260904234756 | 23 | 260 | 12.9 | 22.5 | 0.00 | 0.00 | 0.00 | 71 | 1011.4 |
| 20260904234235 | 22 | 248 | 12.9 | 22.5 | 0.00 | 0.00 | 0.00 | 72 | 1011.4 |
| 20260904233730 | 22 | 182 | 8.0 | 20.9 | 0.00 | 0.00 | 0.00 | 72 | 1011.4 |
| 20260904233229 | 22 | 222 | 12.9 | 25.7 | 0.00 | 0.00 | 0.00 | 72 | 1011.4 |
| 20260904232703 | 23 | 232 | 20.9 | 25.7 | 0.00 | 0.00 | 0.00 | 70 | 1011.4 |
| 20260904232203 | 23 | 257 | 14.5 | 22.5 | 0.00 | 0.00 | 0.00 | 70 | 1011.4 |
| 20260904231705 | 23 | 230 | 12.9 | 17.7 | 0.00 | 0.00 | 0.00 | 69 | 1011.4 |
| 20260904231203 | 23 | 261 | 9.7 | 24.1 | 0.00 | 0.00 | 0.00 | 70 | 1011.4 |
| 20260904230703 | 23 | 241 | 8.0 | 24.1 | 0.00 | 0.00 | 0.00 | 70 | 1011.4 |
| 20260904230203 | 23 | 217 | 9.7 | 20.9 | 0.00 | 0.00 | 0.00 | 69 | 1011.4 |
| 20260904225155 | 23 | 225 | 9.7 | 20.9 | 0.00 | 0.00 | 0.00 | 70 | 1011.4 |
| 20260904224647 | 23 | 233 | 3.2 | 20.9 | 0.00 | 0.00 | 0.00 | 70 | 1011.8 |
| 20260904224148 | 23 | 273 | 12.9 | 17.7 | 0.00 | 0.00 | 0.00 | 70 | 1011.4 |
| 20260904223635 | 23 | 219 | 11.3 | 20.9 | 0.00 | 0.00 | 0.00 | 69 | 1011.8 |
| 20260904222558 | 23 | 221 | 14.5 | 20.9 | 0.00 | 0.00 | 0.00 | 67 | 1011.8 |
| 20260904222056 | 23 | 236 | 16.1 | 20.9 | 0.00 | 0.00 | 0.00 | 67 | 1011.8 |
| 20260904221048 | 23 | 215 | 9.7 | 20.9 | 0.00 | 0.00 | 0.00 | 69 | 1011.8 |
| 20260904220548 | 23 | 200 | 12.9 | 22.5 | 0.00 | 0.00 | 0.00 | 69 | 1011.8 |
| 20260904220034 | 23 | 256 | 11.3 | 22.5 | 0.00 | 0.00 | 0.00 | 68 | 1011.8 |
| 20260904215529 | 23 | 241 | 8.0 | 20.9 | 0.00 | 0.00 | 0.00 | 70 | 1011.8 |
| 20260904214957 | 23 | 201 | 14.5 | 20.9 | 0.00 | 0.00 | 0.00 | 70 | 1011.8 |
| 20260904214450 | 23 | 290 | 11.3 | 20.9 | 0.00 | 0.00 | 0.00 | 68 | 1011.8 |
| 20260904213936 | 24 | 221 | 14.5 | 20.9 | 0.00 | 0.00 | 0.00 | 68 | 1011.8 |
| 20260904213403 | 23 | 242 | 11.3 | 24.1 | 0.00 | 0.00 | 0.00 | 69 | 1011.8 |
| 20260904212903 | 23 | 223 | 11.3 | 24.1 | 0.00 | 0.00 | 0.00 | 69 | 1011.8 |
| 20260904211835 | 23 | 224 | 16.1 | 20.9 | 0.00 | 0.00 | 0.00 | 68 | 1012.1 |
| 20260904211304 | 23 | 222 | 8.0 | 17.7 | 0.00 | 0.00 | 0.00 | 68 | 1011.8 |
| 20260904210749 | 23 | 257 | 12.9 | 20.9 | 0.00 | 0.00 | 0.00 | 69 | 1012.1 |
| 20260904205733 | 23 | 236 | 9.7 | 17.7 | 0.00 | 0.00 | 0.00 | 67 | 1011.8 |
| 20260904205234 | 23 | 227 | 16.1 | 20.9 | 0.00 | 0.00 | 0.00 | 67 | 1011.8 |
| 20260904204704 | 23 | 176 | 9.7 | 20.9 | 0.00 | 0.00 | 0.00 | 67 | 1012.1 |
| 20260904204204 | 24 | 201 | 9.7 | 16.1 | 0.00 | 0.00 | 0.00 | 65 | 1011.8 |
| 20260904203705 | 24 | 212 | 9.7 | 17.7 | 0.00 | 0.00 | 0.00 | 65 | 1012.1 |
| 20260904202703 | 23 | 210 | 9.7 | 20.9 | 0.00 | 0.00 | 0.00 | 66 | 1012.1 |
| 20260904202154 | 23 | 185 | 3.2 | 20.9 | 0.00 | 0.00 | 0.00 | 67 | 1012.1 |
| 20260904201635 | 23 | 207 | 14.5 | 22.5 | 0.00 | 0.00 | 0.00 | 66 | 1012.1 |
| 20260904201104 | 23 | 221 | 20.9 | 22.5 | 0.00 | 0.00 | 0.00 | 64 | 1012.1 |
| 20260904200556 | 24 | 258 | 14.5 | 17.7 | 0.00 | 0.00 | 0.00 | 63 | 1012.1 |
| 20260904200056 | 24 | 208 | 12.9 | 17.7 | 0.00 | 0.00 | 0.00 | 62 | 1012.1 |
| 20260904195556 | 24 | 289 | 8.0 | 20.9 | 0.00 | 0.00 | 0.00 | 62 | 1012.1 |
| 20260904195049 | 25 | 234 | 16.1 | 20.9 | 0.00 | 0.00 | 0.00 | 61 | 1012.1 |
| 20260904194535 | 24 | 196 | 6.4 | 16.1 | 0.00 | 0.00 | 0.00 | 62 | 1012.4 |
| 20260904194036 | 23 | 216 | 12.9 | 16.1 | 0.00 | 0.00 | 0.00 | 62 | 1012.4 |
| 20260904193504 | 24 | 221 | 8.0 | 16.1 | 0.00 | 0.00 | 0.00 | 62 | 1012.4 |
| 20260904193003 | 23 | 225 | 9.7 | 17.7 | 0.00 | 0.00 | 0.00 | 64 | 1012.4 |
| 20260904192003 | 23 | 185 | 9.7 | 17.7 | 0.00 | 0.00 | 0.00 | 62 | 1012.4 |
| 20260904191450 | 23 | 206 | 14.5 | 17.7 | 0.00 | 0.00 | 0.00 | 63 | 1012.8 |
| 20260904190948 | 24 | 180 | 11.3 | 14.5 | 0.00 | 0.00 | 0.00 | 62 | 1012.8 |
| 20260904190435 | 24 | 270 | 3.2 | 14.5 | 0.00 | 0.00 | 0.00 | 62 | 1012.8 |
| 20260904185904 | 23 | 195 | 6.4 | 14.5 | 0.00 | 0.00 | 0.00 | 62 | 1012.8 |
| 20260904184904 | 23 | 217 | 6.4 | 12.9 | 0.00 | 0.00 | 0.00 | 63 | 1012.8 |
| 20260904184349 | 24 | 210 | 6.4 | 14.5 | 0.00 | 0.00 | 0.00 | 62 | 1012.8 |
| 20260904183830 | 23 | 150 | 3.2 | 14.5 | 0.00 | 0.00 | 0.00 | 64 | 1012.8 |
| 20260904183257 | 23 | 225 | 6.4 | 11.3 | 0.00 | 0.00 | 0.00 | 65 | 1012.8 |
| 20260904182229 | 23 | 288 | 6.4 | 12.9 | 0.00 | 0.00 | 0.00 | 66 | 1013.1 |
| 20260904181656 | 23 | 207 | 8.0 | 12.9 | 0.00 | 0.00 | 0.00 | 66 | 1013.1 |
| 20260904181155 | 22 | 307 | 3.2 | 12.9 | 0.00 | 0.00 | 0.00 | 68 | 1012.8 |
| 20260904180637 | 22 | 238 | 6.4 | 12.9 | 0.00 | 0.00 | 0.00 | 68 | 1013.1 |
| 20260904175636 | 22 | 200 | 9.7 | 12.9 | 0.00 | 0.00 | 0.00 | 69 | 1013.1 |
| 20260904175135 | 22 | 210 | 6.4 | 12.9 | 0.00 | 0.00 | 0.00 | 70 | 1013.1 |
| 20260904174103 | 23 | 161 | 6.4 | 9.7 | 0.00 | 0.00 | 0.00 | 67 | 1013.1 |
| 20260904173548 | 23 | 218 | 4.8 | 11.3 | 0.00 | 0.00 | 0.00 | 67 | 1013.1 |
| 20260904172002 | 23 | 279 | 8.0 | 14.5 | 0.00 | 0.00 | 0.00 | 68 | 1013.1 |
| 20260904171503 | 23 | 312 | 1.6 | 4.8 | 0.00 | 0.00 | 0.00 | 62 | 1012.8 |
| 20260904170936 | 23 | 192 | 3.2 | 9.7 | 0.00 | 0.00 | 0.00 | 63 | 1012.8 |
| 20260904170438 | 22 | 61 | 1.6 | 9.7 | 0.00 | 0.00 | 0.00 | 66 | 1012.8 |
| 20260904165935 | 22 | 180 | 3.2 | 9.7 | 0.00 | 0.00 | 0.00 | 66 | 1012.8 |
| 20260904165403 | 22 | 80 | 4.8 | 9.7 | 0.00 | 0.00 | 0.00 | 65 | 1012.8 |
| 20260904164904 | 23 | 137 | 6.4 | 6.4 | 0.00 | 0.00 | 0.00 | 64 | 1012.4 |
| 20260904164404 | 23 | 199 | 1.6 | 4.8 | 0.00 | 0.00 | 0.00 | 65 | 1012.4 |
| 20260904163335 | 22 | 247 | 3.2 | 6.4 | 0.00 | 0.00 | 0.00 | 67 | 1012.8 |
| 20260904162836 | 22 | 262 | 6.4 | 6.4 | 0.00 | 0.00 | 0.00 | 67 | 1012.4 |
| 20260904162336 | 22 | 180 | 4.8 | 6.4 | 0.00 | 0.00 | 0.00 | 67 | 1012.4 |
| 20260904161803 | 22 | 121 | 6.4 | 6.4 | 0.00 | 0.00 | 0.00 | 69 | 1012.4 |
| 20260904161305 | 21 | 248 | 1.6 | 4.8 | 0.00 | 0.00 | 0.00 | 74 | 1012.4 |
| 20260904160258 | 21 | 60 | 3.2 | 4.8 | 0.00 | 0.00 | 0.00 | 74 | 1012.4 |
| 20260904155757 | 21 | 266 | 1.6 | 6.4 | 0.00 | 0.00 | 0.00 | 77 | 1012.4 |
| 20260904155257 | 20 | 222 | 1.6 | 6.4 | 0.00 | 0.00 | 0.00 | 76 | 1012.4 |
| 20260904154256 | 20 | 289 | 1.6 | 6.4 | 0.00 | 0.00 | 0.00 | 77 | 1012.4 |
| 20260904153756 | 20 | 137 | 3.2 | 6.4 | 0.00 | 0.00 | 0.00 | 77 | 1012.4 |
| 20260904153240 | 20 | 167 | 3.2 | 6.4 | 0.00 | 0.00 | 0.00 | 77 | 1012.4 |
| 20260904152728 | 20 | 158 | 4.8 | 6.4 | 0.00 | 0.00 | 0.00 | 76 | 1012.4 |
| 20260904152204 | 20 | 7 | 1.6 | 6.4 | 0.00 | 0.00 | 0.00 | 78 | 1012.4 |
| 20260904151703 | 20 | 35 | 6.4 | 6.4 | 0.00 | 0.00 | 0.00 | 77 | 1012.4 |
| 20260904151203 | 20 | 35 | 3.2 | 4.8 | 0.00 | 0.00 | 0.00 | 77 | 1012.4 |
| 20260904145702 | 21 | 9 | 0.0 | 4.8 | 0.00 | 0.00 | 0.00 | 77 | 1012.4 |
| 20260904145201 | 20 | 346 | 0.0 | 4.8 | 0.00 | 0.00 | 0.00 | 79 | 1012.1 |
| 20260904144701 | 20 | 1 | 1.6 | 3.2 | 0.00 | 0.00 | 0.00 | 81 | 1012.1 |
| 20260904144157 | 19 | 21 | 1.6 | 4.8 | 0.00 | 0.00 | 0.00 | 83 | 1012.1 |
| 20260904143657 | 18 | 25 | 1.6 | 4.8 | 0.00 | 0.00 | 0.00 | 83 | 1012.1 |
| 20260904143157 | 18 | 341 | 1.6 | 1.6 | 0.00 | 0.00 | 0.00 | 84 | 1012.1 |
| 20260904142649 | 18 | 330 | 1.6 | 1.6 | 0.00 | 0.00 | 0.00 | 84 | 1011.8 |
| 20260904142136 | 18 | 331 | 1.6 | 3.2 | 0.00 | 0.00 | 0.00 | 84 | 1011.8 |
| 20260904141604 | 18 | 330 | 1.6 | 3.2 | 0.00 | 0.00 | 0.00 | 84 | 1011.8 |
| 20260904141057 | 18 | 347 | 1.6 | 3.2 | 0.00 | 0.00 | 0.00 | 85 | 1011.8 |
| 20260904140557 | 18 | 359 | 3.2 | 3.2 | 0.00 | 0.00 | 0.00 | 85 | 1011.8 |
| 20260904135536 | 18 | 8 | 3.2 | 3.2 | 0.00 | 0.00 | 0.00 | 85 | 1011.8 |
| 20260904135029 | 18 | 356 | 1.6 | 4.8 | 0.00 | 0.00 | 0.00 | 85 | 1011.8 |
| 20260904134529 | 18 | 343 | 1.6 | 3.2 | 0.00 | 0.00 | 0.00 | 85 | 1011.8 |
| 20260904133957 | 18 | 334 | 0.0 | 1.6 | 0.00 | 0.00 | 0.00 | 85 | 1011.4 |
| 20260904133447 | 18 | 331 | 0.0 | 3.2 | 0.00 | 0.00 | 0.00 | 85 | 1011.4 |
| 20260904132930 | 18 | 341 | 0.0 | 3.2 | 0.00 | 0.00 | 0.00 | 85 | 1011.4 |
| 20260904131838 | 18 | 352 | 1.6 | 3.2 | 0.00 | 0.00 | 0.00 | 85 | 1011.4 |
| 20260904130837 | 18 | 347 | 1.6 | 3.2 | 0.00 | 0.00 | 0.00 | 85 | 1011.4 |
| 20260904130329 | 18 | 10 | 3.2 | 3.2 | 0.00 | 0.00 | 0.00 | 84 | 1011.4 |
| 20260904125829 | 18 | 8 | 1.6 | 3.2 | 0.00 | 0.00 | 0.00 | 84 | 1011.4 |
| 20260904125257 | 18 | 346 | 0.0 | 3.2 | 0.00 | 0.00 | 0.00 | 84 | 1011.4 |
| 20260904124758 | 18 | 340 | 1.6 | 3.2 | 0.00 | 0.00 | 0.00 | 84 | 1011.4 |
| 20260904124237 | 18 | 1 | 1.6 | 3.2 | 0.00 | 0.00 | 0.00 | 85 | 1011.4 |
| 20260904123236 | 18 | 9 | 1.6 | 3.2 | 0.00 | 0.00 | 0.00 | 85 | 1011.4 |
| 20260904122203 | 18 | 346 | 1.6 | 1.6 | 0.00 | 0.00 | 0.00 | 86 | 1011.1 |
| 20260904121703 | 18 | 346 | 0.0 | 1.6 | 0.00 | 0.00 | 0.00 | 85 | 1011.1 |
| 20260904121150 | 18 | 346 | 1.6 | 1.6 | 0.00 | 0.00 | 0.00 | 85 | 1011.1 |
| 20260904120636 | 18 | 346 | 1.6 | 1.6 | 0.00 | 0.00 | 0.00 | 86 | 1011.4 |
| 20260904120129 | 18 | 346 | 1.6 | 1.6 | 0.00 | 0.00 | 0.00 | 86 | 1011.1 |
| 20260904115558 | 18 | 346 | 1.6 | 1.6 | 0.00 | 0.00 | 0.00 | 86 | 1011.1 |
| 20260904114557 | 18 | 345 | 0.0 | 3.2 | 0.00 | 0.00 | 0.00 | 86 | 1011.4 |
| 20260904114048 | 17 | 343 | 0.0 | 3.2 | 0.00 | 0.00 | 0.00 | 86 | 1011.1 |
| 20260904113548 | 17 | 338 | 1.6 | 3.2 | 0.00 | 0.00 | 0.00 | 87 | 1011.4 |
| 20260904113036 | 17 | 337 | 0.0 | 3.2 | 0.00 | 0.00 | 0.00 | 86 | 1011.1 |
| 20260904112504 | 17 | 343 | 1.6 | 3.2 | 0.00 | 0.00 | 0.00 | 87 | 1011.1 |
| 20260904112004 | 17 | 345 | 0.0 | 3.2 | 0.00 | 0.00 | 0.00 | 87 | 1011.1 |
| 20260904111504 | 17 | 353 | 1.6 | 3.2 | 0.00 | 0.00 | 0.00 | 87 | 1011.1 |
| 20260904110956 | 17 | 350 | 1.6 | 3.2 | 0.00 | 0.00 | 0.00 | 86 | 1011.1 |
| 20260904110437 | 17 | 346 | 1.6 | 3.2 | 0.00 | 0.00 | 0.00 | 86 | 1011.4 |
| 20260904105929 | 17 | 347 | 1.6 | 3.2 | 0.00 | 0.00 | 0.00 | 86 | 1011.4 |
| 20260904105429 | 17 | 346 | 1.6 | 3.2 | 0.00 | 0.00 | 0.00 | 86 | 1011.4 |
| 20260904104909 | 17 | 349 | 0.0 | 3.2 | 0.00 | 0.00 | 0.00 | 86 | 1011.4 |
| 20260904104402 | 17 | 347 | 1.6 | 3.2 | 0.00 | 0.00 | 0.00 | 86 | 1011.4 |
| 20260904103902 | 17 | 348 | 0.0 | 3.2 | 0.00 | 0.00 | 0.00 | 86 | 1011.1 |
| 20260904102847 | 17 | 347 | 1.6 | 1.6 | 0.00 | 0.00 | 0.00 | 86 | 1011.1 |
| 20260904102348 | 17 | 347 | 1.6 | 1.6 | 0.00 | 0.00 | 0.00 | 86 | 1011.1 |
| 20260904101836 | 17 | 347 | 0.0 | 3.2 | 0.00 | 0.00 | 0.00 | 86 | 1011.1 |
| 20260904101329 | 17 | 6 | 1.6 | 3.2 | 0.00 | 0.00 | 0.00 | 86 | 1011.1 |
| 20260904100758 | 17 | 324 | 1.6 | 3.2 | 0.00 | 0.00 | 0.00 | 86 | 1011.1 |
| 20260904100250 | 17 | 335 | 0.0 | 3.2 | 0.00 | 0.00 | 0.00 | 86 | 1011.1 |
| 20260904095736 | 17 | 330 | 1.6 | 1.6 | 0.00 | 0.00 | 0.00 | 86 | 1011.1 |
| 20260904095203 | 17 | 331 | 1.6 | 1.6 | 0.00 | 0.00 | 0.00 | 86 | 1011.1 |
| 20260904094703 | 17 | 334 | 1.6 | 1.6 | 0.00 | 0.00 | 0.00 | 86 | 1011.1 |
| 20260904094204 | 17 | 326 | 0.0 | 0.0 | 0.00 | 0.00 | 0.00 | 86 | 1011.1 |
| 20260904093704 | 17 | 326 | 0.0 | 1.6 | 0.00 | 0.00 | 0.00 | 86 | 1011.1 |
| 20260904093158 | 17 | 326 | 0.0 | 1.6 | 0.00 | 0.00 | 0.00 | 86 | 1011.1 |
| 20260904092657 | 17 | 326 | 1.6 | 3.2 | 0.00 | 0.00 | 0.00 | 86 | 1011.1 |
| 20260904091647 | 17 | 335 | 0.0 | 3.2 | 0.00 | 0.00 | 0.00 | 85 | 1011.1 |
| 20260904090604 | 17 | 335 | 0.0 | 1.6 | 0.00 | 0.00 | 0.00 | 85 | 1011.1 |
| 20260904090104 | 17 | 335 | 1.6 | 1.6 | 0.00 | 0.00 | 0.00 | 85 | 1011.1 |
| 20260904085550 | 17 | 335 | 1.6 | 1.6 | 0.00 | 0.00 | 0.00 | 85 | 1011.1 |
| 20260904085049 | 17 | 333 | 0.0 | 1.6 | 0.00 | 0.00 | 0.00 | 85 | 1011.1 |
| 20260904084035 | 17 | 334 | 0.0 | 1.6 | 0.00 | 0.00 | 0.00 | 85 | 1011.4 |
| 20260904083503 | 17 | 333 | 0.0 | 1.6 | 0.00 | 0.00 | 0.00 | 85 | 1011.1 |
| 20260904081950 | 17 | 332 | 1.6 | 1.6 | 0.00 | 0.00 | 0.00 | 84 | 1011.1 |
| 20260904081435 | 17 | 328 | 0.0 | 3.2 | 0.00 | 0.00 | 0.00 | 84 | 1011.1 |
| 20260904080411 | 17 | 326 | 1.6 | 3.2 | 0.00 | 0.00 | 0.00 | 83 | 1011.1 |
| 20260904075904 | 17 | 317 | 0.0 | 3.2 | 0.00 | 0.00 | 0.00 | 83 | 1011.4 |
| 20260904075404 | 17 | 339 | 1.6 | 3.2 | 0.00 | 0.00 | 0.00 | 83 | 1011.4 |
| 20260904074903 | 17 | 8 | 1.6 | 3.2 | 0.00 | 0.00 | 0.00 | 83 | 1011.4 |
| 20260904074358 | 17 | 323 | 1.6 | 1.6 | 0.00 | 0.00 | 0.00 | 83 | 1011.4 |
| 20260904073835 | 17 | 325 | 0.0 | 1.6 | 0.00 | 0.00 | 0.00 | 83 | 1011.4 |
| 20260904073329 | 17 | 326 | 0.0 | 1.6 | 0.00 | 0.00 | 0.00 | 83 | 1011.4 |
| 20260904072828 | 17 | 322 | 1.6 | 3.2 | 0.00 | 0.00 | 0.00 | 83 | 1011.4 |
| 20260904071829 | 17 | 328 | 1.6 | 3.2 | 0.00 | 0.00 | 0.00 | 83 | 1011.4 |
| 20260904071304 | 18 | 327 | 1.6 | 3.2 | 0.00 | 0.00 | 0.00 | 83 | 1011.1 |
| 20260904070758 | 18 | 326 | 1.6 | 3.2 | 0.00 | 0.00 | 0.00 | 83 | 1011.1 |
| 20260904070256 | 18 | 327 | 1.6 | 3.2 | 0.00 | 0.00 | 0.00 | 83 | 1011.1 |
| 20260904065749 | 18 | 330 | 1.6 | 3.2 | 0.00 | 0.00 | 0.00 | 83 | 1011.1 |
| 20260904065241 | 18 | 332 | 1.6 | 3.2 | 0.00 | 0.00 | 0.00 | 82 | 1011.1 |
| 20260904064736 | 18 | 333 | 0.0 | 1.6 | 0.00 | 0.00 | 0.00 | 82 | 1011.1 |
| 20260904064229 | 18 | 333 | 1.6 | 3.2 | 0.00 | 0.00 | 0.00 | 82 | 1011.4 |
| 20260904063704 | 18 | 333 | 3.2 | 3.2 | 0.00 | 0.00 | 0.00 | 82 | 1011.1 |
| 20260904062636 | 18 | 326 | 0.0 | 4.8 | 0.00 | 0.00 | 0.00 | 82 | 1011.1 |
| 20260904062129 | 18 | 350 | 3.2 | 4.8 | 0.00 | 0.00 | 0.00 | 82 | 1011.1 |
| 20260904061604 | 18 | 6 | 3.2 | 3.2 | 0.00 | 0.00 | 0.00 | 82 | 1011.1 |
| 20260904061057 | 18 | 23 | 3.2 | 3.2 | 0.00 | 0.00 | 0.00 | 82 | 1011.1 |
| 20260904060536 | 18 | 334 | 0.0 | 3.2 | 0.00 | 0.00 | 0.00 | 82 | 1011.1 |
| 20260904060027 | 18 | 324 | 1.6 | 6.4 | 0.00 | 0.00 | 0.00 | 82 | 1011.1 |
| 20260904054957 | 18 | 9 | 3.2 | 4.8 | 0.00 | 0.00 | 0.00 | 82 | 1011.1 |
| 20260904054457 | 18 | 7 | 3.2 | 4.8 | 0.00 | 0.00 | 0.00 | 83 | 1011.1 |
| 20260904053957 | 18 | 346 | 1.6 | 4.8 | 0.00 | 0.00 | 0.00 | 83 | 1011.1 |
| 20260904053457 | 18 | 331 | 1.6 | 3.2 | 0.00 | 0.00 | 0.00 | 83 | 1010.7 |
| 20260904052936 | 18 | 334 | 1.6 | 1.6 | 0.00 | 0.00 | 0.00 | 83 | 1011.1 |
| 20260904052426 | 18 | 328 | 0.0 | 1.6 | 0.00 | 0.00 | 0.00 | 83 | 1011.1 |
| 20260904051905 | 18 | 328 | 1.6 | 1.6 | 0.00 | 0.00 | 0.00 | 83 | 1011.1 |
| 20260904051357 | 18 | 328 | 0.0 | 3.2 | 0.00 | 0.00 | 0.00 | 83 | 1011.1 |
| 20260904050836 | 18 | 343 | 1.6 | 3.2 | 0.00 | 0.00 | 0.00 | 83 | 1011.1 |
| 20260904050329 | 18 | 320 | 1.6 | 1.6 | 0.00 | 0.00 | 0.00 | 83 | 1011.1 |
| 20260904045804 | 18 | 316 | 1.6 | 3.2 | 0.00 | 0.00 | 0.00 | 82 | 1011.1 |
| 20260904045306 | 18 | 318 | 0.0 | 3.2 | 0.00 | 0.00 | 0.00 | 83 | 1011.1 |
| 20260904044804 | 18 | 321 | 1.6 | 3.2 | 0.00 | 0.00 | 0.00 | 82 | 1011.1 |
| 20260904044304 | 18 | 322 | 1.6 | 1.6 | 0.00 | 0.00 | 0.00 | 82 | 1011.1 |
| 20260904043741 | 18 | 323 | 1.6 | 3.2 | 0.00 | 0.00 | 0.00 | 83 | 1011.1 |
| 20260904043236 | 19 | 324 | 0.0 | 3.2 | 0.00 | 0.00 | 0.00 | 82 | 1011.1 |
| 20260904042737 | 19 | 323 | 1.6 | 3.2 | 0.00 | 0.00 | 0.00 | 83 | 1011.1 |
| 20260904041704 | 19 | 319 | 1.6 | 3.2 | 0.00 | 0.00 | 0.00 | 83 | 1011.1 |
| 20260904041204 | 19 | 282 | 1.6 | 3.2 | 0.00 | 0.00 | 0.00 | 82 | 1010.7 |
| 20260904040702 | 19 | 240 | 1.6 | 3.2 | 0.00 | 0.00 | 0.00 | 82 | 1010.7 |
| 20260904040157 | 19 | 242 | 1.6 | 3.2 | 0.00 | 0.00 | 0.00 | 82 | 1010.7 |
| 20260904035636 | 19 | 233 | 3.2 | 3.2 | 0.00 | 0.00 | 0.00 | 82 | 1010.7 |
| 20260904035129 | 19 | 267 | 0.0 | 3.2 | 0.00 | 0.00 | 0.00 | 82 | 1010.7 |
| 20260904034604 | 19 | 249 | 3.2 | 3.2 | 0.00 | 0.00 | 0.00 | 82 | 1010.7 |
| 20260904032504 | 19 | 210 | 3.2 | 3.2 | 0.00 | 0.00 | 0.00 | 82 | 1010.4 |
| 20260904031957 | 19 | 240 | 3.2 | 4.8 | 0.00 | 0.00 | 0.00 | 82 | 1010.4 |
| 20260904031436 | 20 | 254 | 1.6 | 4.8 | 0.00 | 0.00 | 0.00 | 82 | 1010.7 |
| 20260904030930 | 20 | 249 | 1.6 | 4.8 | 0.00 | 0.00 | 0.00 | 82 | 1010.4 |
| 20260904030404 | 20 | 229 | 1.6 | 4.8 | 0.00 | 0.00 | 0.00 | 81 | 1010.4 |
| 20260904025901 | 20 | 225 | 3.2 | 6.4 | 0.00 | 0.00 | 0.00 | 81 | 1010.4 |
| 20260904025357 | 20 | 281 | 1.6 | 6.4 | 0.00 | 0.00 | 0.00 | 81 | 1010.4 |
| 20260904024829 | 20 | 267 | 1.6 | 4.8 | 0.00 | 0.00 | 0.00 | 81 | 1010.4 |
| 20260904023757 | 20 | 228 | 8.0 | 9.7 | 0.00 | 0.00 | 0.00 | 80 | 1010.4 |
| 20260904023236 | 20 | 280 | 3.2 | 11.3 | 0.00 | 0.00 | 0.00 | 80 | 1010.4 |
| 20260904022729 | 20 | 264 | 6.4 | 11.3 | 0.00 | 0.00 | 0.00 | 80 | 1010.4 |
| 20260904021138 | 20 | 279 | 4.8 | 16.1 | 0.00 | 0.00 | 0.00 | 80 | 1010.4 |
| 20260904020106 | 20 | 264 | 9.7 | 14.5 | 0.00 | 0.00 | 0.00 | 79 | 1010.4 |
| 20260904015557 | 20 | 230 | 11.3 | 14.5 | 0.00 | 0.00 | 0.00 | 78 | 1010.4 |
| 20260904015038 | 21 | 250 | 4.8 | 12.9 | 0.00 | 0.00 | 0.00 | 79 | 1010.4 |
| 20260904013537 | 21 | 301 | 14.5 | 16.1 | 0.00 | 0.00 | 0.00 | 77 | 1010.4 |
| 20260904013027 | 21 | 192 | 4.8 | 16.1 | 0.00 | 0.00 | 0.00 | 78 | 1010.4 |
| 20260904012505 | 21 | 236 | 9.7 | 14.5 | 0.00 | 0.00 | 0.00 | 77 | 1010.4 |
| 20260904011949 | 21 | 266 | 8.0 | 17.7 | 0.00 | 0.00 | 0.00 | 77 | 1010.4 |
| 20260904010950 | 21 | 250 | 14.5 | 17.7 | 0.00 | 0.00 | 0.00 | 75 | 1010.4 |
| 20260904010441 | 21 | 238 | 12.9 | 17.7 | 0.00 | 0.00 | 0.00 | 74 | 1010.4 |
| 20260904005936 | 22 | 215 | 8.0 | 20.9 | 0.00 | 0.00 | 0.00 | 72 | 1010.4 |
| 20260904005432 | 22 | 168 | 14.5 | 20.9 | 0.00 | 0.00 | 0.00 | 72 | 1010.4 |
| 20260904004914 | 22 | 247 | 9.7 | 16.1 | 0.00 | 0.00 | 0.00 | 72 | 1010.7 |
| 20260904004408 | 22 | 240 | 11.3 | 16.1 | 0.00 | 0.00 | 0.00 | 72 | 1010.7 |
| 20260904003902 | 22 | 219 | 8.0 | 20.9 | 0.00 | 0.00 | 0.00 | 72 | 1010.4 |
| 20260904002848 | 22 | 249 | 11.3 | 20.9 | 0.00 | 0.00 | 0.00 | 73 | 1010.4 |
| 20260904002342 | 22 | 228 | 14.5 | 22.5 | 0.00 | 0.00 | 0.00 | 72 | 1010.7 |
| 20260904001837 | 22 | 219 | 8.0 | 22.5 | 0.00 | 0.00 | 0.00 | 73 | 1010.7 |
| 20260904000822 | 22 | 270 | 8.0 | 22.5 | 0.00 | 0.00 | 0.00 | 72 | 1010.7 |
| 20260904000318 | 22 | 245 | 9.7 | 22.5 | 0.00 | 0.00 | 0.00 | 72 | 1010.7 |
| 20260903235809 | 22 | 250 | 16.1 | 22.5 | 0.00 | 0.00 | 0.00 | 72 | 1010.7 |